Dades meteomassalio
Diari Summary for Agost 3, 2017 Units:  Metric    English   Both
« Previous Day
Next Day »
Diari Semanal Mensual Anual Personalitzat
  Maxima: Minima: Mijana:
Temperatura: -17.8 °C -7.3 °C -1.6 °C
Rosada: -17.8 °C -11.4 °C -9.4 °C
Humitat: Humidity % 20 % 46 %
Velocitat del vent: 0 km/h 0 km/h 6.4 km/h
Racha vent: 0 km/h - -
Vent:- - ESE
Pressio: 0 hPa 34256.2 hPa -
Pluja: 0 mm    
Historical Graphs
 
 
Tabular Data for Agost 3, 2017
Time Temperature Dew Point Pressure Wind Wind Speed Wind Gust Humidity Rainfall Rate (Hourly) solar Conditions
-17.8 °C -17.8 °C 0 hPa Calm     Humidity % 0 mm SolarRadiationWatts/m^2 W/m2 Conditions
00:04 -2.9 °C -8.8 °C 34395 hPa Calm     52 % 0 mm 0.0 W/m2 CLR
00:09 -3.1 °C -9 °C 34395 hPa Calm     52 % 0 mm 0.0 W/m2 CLR
00:14 -3 °C -8.9 °C 34395 hPa Calm     52 % 0 mm 0.0 W/m2 CLR
00:19 -2.9 °C -8.9 °C 34395 hPa Calm     52 % 0 mm 0.0 W/m2 CLR
00:24 -3 °C -8.9 °C 34395 hPa Calm     52 % 0 mm 0.0 W/m2 CLR
00:29 -3.1 °C -8.8 °C 34395 hPa Calm     53 % 0 mm 0.0 W/m2 CLR
00:34 -3.3 °C -8.8 °C 34395 hPa Calm     54 % 0 mm 0.0 W/m2 CLR
00:39 -3.4 °C -8.8 °C 34395 hPa Calm     55 % 0 mm 0.0 W/m2 CLR
00:44 -3.6 °C -9 °C 34395 hPa Calm     55 % 0 mm 0.0 W/m2 CLR
00:49 -3.7 °C -8.9 °C 34395 hPa Calm     56 % 0 mm 0.0 W/m2 CLR
00:54 -3.7 °C -8.9 °C 34395 hPa Calm     56 % 0 mm 0.0 W/m2 CLR
00:59 -3.8 °C -9.1 °C 34395 hPa Calm     56 % 0 mm 0.0 W/m2 CLR
01:04 -3.8 °C -9 °C 34395 hPa Calm     56 % 0 mm 0.0 W/m2 CLR
01:09 -3.8 °C -9 °C 34395 hPa Calm     56 % 0 mm 0.0 W/m2 CLR
01:14 -3.9 °C -8.9 °C 34395 hPa Calm     57 % 0 mm 0.0 W/m2 CLR
01:19 -4 °C -9.1 °C 34384.8 hPa Calm     57 % 0 mm 0.0 W/m2 CLR
01:24 -4.1 °C -9 °C 34395 hPa Calm     58 % 0 mm 0.0 W/m2 CLR
01:29 -4.2 °C -9 °C 34384.8 hPa Calm     59 % 0 mm 0.0 W/m2 CLR
01:34 -4.4 °C -9 °C 34384.8 hPa Calm     60 % 0 mm 0.0 W/m2 CLR
01:39 -4.6 °C -9.2 °C 34384.8 hPa Calm     60 % 0 mm 0.0 W/m2 CLR
01:44 -4.7 °C -9.1 °C 34384.8 hPa Calm     61 % 0 mm 0.0 W/m2 CLR
01:49 -4.8 °C -9.2 °C 34384.8 hPa Calm     61 % 0 mm 0.0 W/m2 CLR
01:54 -4.8 °C -9.1 °C 34384.8 hPa Calm     62 % 0 mm 0.0 W/m2 CLR
01:59 -4.9 °C -9.2 °C 34384.8 hPa Calm     62 % 0 mm 0.0 W/m2 CLR
02:04 -5.1 °C -9.2 °C 34384.8 hPa Calm     63 % 0 mm 0.0 W/m2 CLR
02:09 -5.1 °C -9.1 °C 34384.8 hPa Calm     64 % 0 mm 0.0 W/m2 CLR
02:14 -5.1 °C -9.2 °C 34384.8 hPa Calm     63 % 0 mm 0.0 W/m2 CLR
02:19 -5.2 °C -9.2 °C 34384.8 hPa Calm     64 % 0 mm 0.0 W/m2 CLR
02:24 -5.3 °C -9.3 °C 34384.8 hPa Calm     64 % 0 mm 0.0 W/m2 CLR
02:29 -5.4 °C -9.3 °C 34384.8 hPa Calm     64 % 0 mm 0.0 W/m2 CLR
02:35 -5.4 °C -9.3 °C 34384.8 hPa Calm     65 % 0 mm 0.0 W/m2 CLR
02:40 -5.5 °C -9.3 °C 34384.8 hPa Calm     65 % 0 mm 0.0 W/m2 CLR
02:45 -5.6 °C -9.4 °C 34384.8 hPa Calm     65 % 0 mm 0.0 W/m2 CLR
02:50 -5.6 °C -9.4 °C 34384.8 hPa Calm     65 % 0 mm 0.0 W/m2 CLR
02:55 -5.7 °C -9.6 °C 34384.8 hPa Calm     65 % 0 mm 0.0 W/m2 CLR
03:00 -5.8 °C -9.5 °C 34384.8 hPa Calm     66 % 0 mm 0.0 W/m2 CLR
03:05 -5.9 °C -9.4 °C 34371.3 hPa Calm     67 % 0 mm 0.0 W/m2 CLR
03:10 -5.9 °C -9.5 °C 34371.3 hPa Calm     67 % 0 mm 0.0 W/m2 CLR
03:15 -6 °C -9.6 °C 34371.3 hPa Calm     67 % 0 mm 0.0 W/m2 CLR
03:20 -6.1 °C -9.6 °C 34371.3 hPa Calm     67 % 0 mm 0.0 W/m2 CLR
03:25 -6.1 °C -9.6 °C 34371.3 hPa Calm     67 % 0 mm 0.0 W/m2 CLR
03:30 -6.2 °C -9.7 °C 34371.3 hPa Calm     67 % 0 mm 0.0 W/m2 CLR
03:35 -6.2 °C -9.6 °C 34371.3 hPa Calm     68 % 0 mm 0.0 W/m2 CLR
03:40 -6.3 °C -9.8 °C 34384.8 hPa Calm     67 % 0 mm 0.0 W/m2 CLR
03:42 -6.3 °C -9.8 °C 34384.8 hPa Calm     67 % 0 mm 0.0 W/m2 CLR
03:47 -6.3 °C -9.9 °C 34384.8 hPa Calm     67 % 0 mm 0.0 W/m2 CLR
03:52 -6.4 °C -9.9 °C 34384.8 hPa Calm     67 % 0 mm 0.0 W/m2 CLR
03:57 -6.3 °C -9.9 °C 34384.8 hPa Calm     67 % 0 mm 0.0 W/m2 CLR
04:02 -6.3 °C -9.9 °C 34384.8 hPa Calm     67 % 0 mm 0.0 W/m2 CLR
04:07 -6.4 °C -9.8 °C 34384.8 hPa Calm     68 % 0 mm 0.0 W/m2 CLR
04:12 -6.5 °C -10.1 °C 34384.8 hPa Calm     67 % 0 mm 0.0 W/m2 CLR
04:17 -6.6 °C -9.9 °C 34384.8 hPa Calm     68 % 0 mm 0.0 W/m2 CLR
04:22 -6.6 °C -10.1 °C 34384.8 hPa Calm     67 % 0 mm 0.0 W/m2 CLR
04:27 -6.6 °C -10.1 °C 34384.8 hPa Calm     67 % 0 mm 0.0 W/m2 CLR
04:32 -6.6 °C -10.1 °C 34384.8 hPa Calm     67 % 0 mm 0.0 W/m2 CLR
04:37 -6.6 °C -10.1 °C 34384.8 hPa Calm     68 % 0 mm 0.0 W/m2 CLR
04:42 -6.7 °C -10.1 °C 34384.8 hPa Calm     68 % 0 mm 0.0 W/m2 CLR
04:47 -6.7 °C -10.1 °C 34384.8 hPa Calm     68 % 0 mm 0.0 W/m2 CLR
04:52 -6.7 °C -10.1 °C 34384.8 hPa Calm     68 % 0 mm 0.0 W/m2 CLR
04:57 -6.8 °C -10 °C 34384.8 hPa Calm     69 % 0 mm 0.0 W/m2 CLR
05:02 -6.8 °C -10.1 °C 34384.8 hPa Calm     69 % 0 mm 0.0 W/m2 CLR
05:07 -6.9 °C -10.2 °C 34384.8 hPa Calm     69 % 0 mm 0.0 W/m2 CLR
05:12 -6.9 °C -10.2 °C 34384.8 hPa Calm     69 % 0 mm 0.0 W/m2 CLR
05:17 -6.8 °C -10.2 °C 34384.8 hPa SSE 6 km/h 6 km/h 68 % 0 mm 0.0 W/m2 CLR
05:22 -6.8 °C -10.1 °C 34384.8 hPa Calm     68 % 0 mm 0.0 W/m2 CLR
05:24 -6.7 °C -10.2 °C 34384.8 hPa Calm     67 % 0 mm 0.0 W/m2 CLR
05:26 -6.7 °C -10.2 °C 34384.8 hPa Calm     67 % 0 mm 0.0 W/m2 CLR
05:28 -6.8 °C -10.1 °C 34384.8 hPa Calm     68 % 0 mm 0.0 W/m2 CLR
05:33 -6.8 °C -10.1 °C 34384.8 hPa Calm     69 % 0 mm 0.0 W/m2 CLR
05:38 -6.9 °C -10.2 °C 34384.8 hPa Calm     69 % 0 mm 0.0 W/m2 CLR
05:43 -6.9 °C -10.2 °C 34384.8 hPa SSW 9 km/h 9 km/h 69 % 0 mm 0.0 W/m2 CLR
05:48 -7 °C -10.2 °C 34384.8 hPa SW 6 km/h 6 km/h 69 % 0 mm 0.0 W/m2 CLR
05:53 -7 °C -10.3 °C 34384.8 hPa Calm     68 % 0 mm 0.0 W/m2 CLR
05:58 -7 °C -10.3 °C 34384.8 hPa Calm     68 % 0 mm 0.0 W/m2 CLR
06:03 -7 °C -10.3 °C 34384.8 hPa Calm     68 % 0 mm 0.0 W/m2 CLR
06:08 -6.9 °C -10.2 °C 34384.8 hPa Calm     69 % 0 mm 0.0 W/m2 CLR
06:13 -6.8 °C -10.2 °C 34384.8 hPa Calm     68 % 0 mm 0.0 W/m2 CLR
06:18 -6.9 °C -10.2 °C 34384.8 hPa Calm     68 % 0 mm 0.0 W/m2 CLR
06:23 -7 °C -10.2 °C 34384.8 hPa Calm     69 % 0 mm 0.0 W/m2 CLR
06:28 -7 °C -10.4 °C 34384.8 hPa Calm     68 % 0 mm 0.0 W/m2 CLR
06:33 -7.1 °C -10.3 °C 34395 hPa Calm     69 % 0 mm 0.0 W/m2 CLR
06:38 -7.1 °C -10.3 °C 34395 hPa Calm     69 % 0 mm 0.0 W/m2 CLR
06:43 -7.1 °C -10.4 °C 34395 hPa Calm     69 % 0 mm 0.0 W/m2 CLR
06:48 -7.3 °C -10.4 °C 34395 hPa Calm     70 % 0 mm 0.0 W/m2 OVC
06:53 -7.3 °C -10.3 °C 34395 hPa Calm     71 % 0 mm 0.0 W/m2 OVC
06:58 -7.3 °C -10.3 °C 34395 hPa Calm     71 % 0 mm 0.0 W/m2 OVC
07:03 -7.3 °C -10.2 °C 34395 hPa Calm     71 % 0 mm 7.0 W/m2 OVC
07:08 -7.3 °C -10.2 °C 34395 hPa Calm     71 % 0 mm 11.0 W/m2 BKN
07:13 -7.2 °C -10.2 °C 34395 hPa Calm     71 % 0 mm 14.0 W/m2 BKN
07:18 -7.2 °C -10.1 °C 34395 hPa Calm     72 % 0 mm 18.0 W/m2 BKN
07:23 -7.3 °C -10.1 °C 34395 hPa Calm     73 % 0 mm 23.0 W/m2 BKN
07:28 -7.3 °C -10.1 °C 34395 hPa Calm     73 % 0 mm 26.0 W/m2 BKN
07:33 -7.3 °C -10.1 °C 34395 hPa Calm     72 % 0 mm 33.0 W/m2 BKN
07:38 -7.2 °C -10.2 °C 34395 hPa Calm     71 % 0 mm 39.0 W/m2 BKN
07:43 -7.1 °C -10.2 °C 34395 hPa Calm     70 % 0 mm 46.0 W/m2 SCT
07:48 -7 °C -10.1 °C 34395 hPa Calm     70 % 0 mm 56.0 W/m2 SCT
07:53 -6.8 °C -10.1 °C 34395 hPa Calm     69 % 0 mm 69.0 W/m2 SCT
07:58 -6.7 °C -9.9 °C 34395 hPa SSE 3.1 km/h   69 % 0 mm 81.0 W/m2 FEW
08:03 -6.6 °C -9.9 °C 34395 hPa Calm     69 % 0 mm 91.0 W/m2 FEW
08:08 -6.4 °C -9.8 °C 34395 hPa Calm     68 % 0 mm 105.0 W/m2 CLR
08:13 -6.2 °C -9.8 °C 34395 hPa Calm     67 % 0 mm 121.0 W/m2 CLR
08:18 -6.1 °C -9.6 °C 34395 hPa Calm     67 % 0 mm 132.0 W/m2 CLR
08:23 -5.9 °C -9.7 °C 34395 hPa Calm     65 % 0 mm 149.0 W/m2 CLR
08:28 -5.6 °C -9.6 °C 34395 hPa Calm     64 % 0 mm 169.0 W/m2 CLR
08:33 -5.3 °C -9.4 °C 34395 hPa Calm     63 % 0 mm 192.0 W/m2 CLR
08:38 -5.1 °C -9.3 °C 34395 hPa Calm     62 % 0 mm 213.0 W/m2 CLR
08:43 -4.8 °C -9.4 °C 34395 hPa Calm     60 % 0 mm 230.0 W/m2 CLR
08:48 -4.6 °C -9.2 °C 34395 hPa Calm     60 % 0 mm 248.0 W/m2 CLR
08:53 -4.4 °C -9 °C 34395 hPa Calm     60 % 0 mm 237.0 W/m2 CLR
08:58 -4.4 °C -9 °C 34395 hPa Calm     60 % 0 mm 262.0 W/m2 CLR
09:03 -4.5 °C -9.2 °C 34395 hPa Calm     59 % 0 mm 285.0 W/m2 CLR
09:08 -4.3 °C -8.9 °C 34395 hPa ENE 10.3 km/h 10.3 km/h 60 % 0 mm 255.0 W/m2 CLR
09:13 -4.2 °C -8.9 °C 34395 hPa ENE 9 km/h 9 km/h 59 % 0 mm 315.0 W/m2 CLR
09:18 -4 °C -9.2 °C 34395 hPa East 9 km/h 9 km/h 56 % 0 mm 332.0 W/m2 CLR
09:23 -3.7 °C -9.3 °C 34395 hPa ENE 6 km/h   54 % 0 mm 343.0 W/m2 CLR
09:28 -3.4 °C -9.1 °C 34395 hPa Calm     53 % 0 mm 367.0 W/m2 CLR
09:33 -3.1 °C -9.2 °C 34395 hPa Calm     51 % 0 mm 369.0 W/m2 CLR
09:38 -2.7 °C -9.2 °C 34395 hPa Calm     49 % 0 mm 394.0 W/m2 CLR
09:43 -2.6 °C -9.2 °C 34395 hPa Calm     48 % 0 mm 207.0 W/m2 CLR
09:48 -2.4 °C -9.1 °C 34395 hPa Calm     48 % 0 mm 213.0 W/m2 CLR
09:53 -2.4 °C -9.1 °C 34395 hPa Calm     48 % 0 mm 432.0 W/m2 CLR
09:58 -2.2 °C -8.7 °C 34395 hPa Calm     49 % 0 mm 457.0 W/m2 CLR
10:03 -1.9 °C -8.8 °C 34395 hPa Calm     47 % 0 mm 468.0 W/m2 CLR
10:08 -1.7 °C -8.8 °C 34395 hPa Calm     46 % 0 mm 478.0 W/m2 CLR
10:13 -1.6 °C -8.8 °C 34395 hPa Calm     45 % 0 mm 501.0 W/m2 CLR
10:18 -1.4 °C -8.7 °C 34395 hPa Calm     45 % 0 mm 510.0 W/m2 CLR
10:23 -1.3 °C -8.8 °C 34395 hPa Calm     44 % 0 mm 526.0 W/m2 CLR
10:28 -1.1 °C -8.8 °C 34395 hPa Calm     43 % 0 mm 548.0 W/m2 CLR
10:34 -0.9 °C -8.7 °C 34395 hPa Calm     43 % 0 mm 561.0 W/m2 CLR
10:39 -0.9 °C -8.8 °C 34395 hPa ENE 3.1 km/h 3.1 km/h 42 % 0 mm 570.0 W/m2 CLR
10:44 -0.8 °C -8.8 °C 34384.8 hPa Calm     42 % 0 mm 585.0 W/m2 CLR
10:49 -0.5 °C -8.9 °C 34384.8 hPa Calm     40 % 0 mm 601.0 W/m2 CLR
10:54 -0.2 °C -8.7 °C 34384.8 hPa ENE 5.1 km/h   40 % 0 mm 605.0 W/m2 CLR
10:59 -0.1 °C -8.6 °C 34384.8 hPa ENE 9 km/h 9 km/h 40 % 0 mm 628.0 W/m2 CLR
11:04 0.1 °C -8.7 °C 34384.8 hPa ENE 11.9 km/h 11.9 km/h 39 % 0 mm 647.0 W/m2 CLR
11:09 0.1 °C -8.4 °C 34384.8 hPa ENE 17.9 km/h 17.9 km/h 40 % 0 mm 645.0 W/m2 CLR
11:14 0.2 °C -8.6 °C 34384.8 hPa NE 11.9 km/h 11.9 km/h 39 % 0 mm 671.0 W/m2 CLR
11:19 0.1 °C -8.8 °C 34384.8 hPa ENE 9 km/h   38 % 0 mm 689.0 W/m2 CLR
11:24 0.2 °C -8.5 °C 34384.8 hPa ENE 9 km/h 9 km/h 39 % 0 mm 679.0 W/m2 CLR
11:29 0.4 °C -8.5 °C 34384.8 hPa East 15 km/h 15 km/h 38 % 0 mm 675.0 W/m2 CLR
11:34 0.4 °C -8.6 °C 34384.8 hPa NE 6 km/h 6 km/h 38 % 0 mm 587.0 W/m2 CLR
11:39 0.5 °C -8.7 °C 34384.8 hPa NE 6 km/h 6 km/h 37 % 0 mm 680.0 W/m2 CLR
11:44 0.6 °C -9.1 °C 34384.8 hPa NNE 15 km/h 15 km/h 35 % 0 mm 714.0 W/m2 CLR
11:49 0.5 °C -9.2 °C 34384.8 hPa NNE 23.8 km/h 23.8 km/h 35 % 0 mm 710.0 W/m2 CLR
11:54 0.5 °C -9.2 °C 34371.3 hPa NNW 11.9 km/h 11.9 km/h 35 % 0 mm 733.0 W/m2 CLR
11:59 0.7 °C -9.1 °C 34371.3 hPa NNW 28.5 km/h 28.5 km/h 35 % 0 mm 724.0 W/m2 CLR
12:04 0.7 °C -8.8 °C 34384.8 hPa NNW 23.8 km/h 23.8 km/h 36 % 0 mm 768.0 W/m2 CLR
12:09 0.6 °C -8.8 °C 34384.8 hPa North 26.9 km/h 26.9 km/h 36 % 0 mm 765.0 W/m2 CLR
12:14 0.7 °C -8.8 °C 34384.8 hPa NNW 23.8 km/h 23.8 km/h 36 % 0 mm 775.0 W/m2 CLR
12:19 0.7 °C -8.8 °C 34384.8 hPa North 26.9 km/h 26.9 km/h 36 % 0 mm 786.0 W/m2 CLR
12:24 0.7 °C -8.8 °C 34384.8 hPa NNE 29.8 km/h 29.8 km/h 36 % 0 mm 788.0 W/m2 CLR
12:29 0.8 °C -8.7 °C 34371.3 hPa North 28.5 km/h 28.5 km/h 36 % 0 mm 798.0 W/m2 CLR
12:34 0.8 °C -8.7 °C 34384.8 hPa NW 23.8 km/h 23.8 km/h 36 % 0 mm 816.0 W/m2 CLR
12:39 0.8 °C -8.9 °C 34371.3 hPa NE 11.9 km/h 11.9 km/h 35 % 0 mm 826.0 W/m2 CLR
12:40 0.8 °C -9 °C 34371.3 hPa NE 18.2 km/h 18.2 km/h 35 % 0 mm 828.0 W/m2 CLR
12:45 1 °C -9.1 °C 34371.3 hPa NNE 23.8 km/h 23.8 km/h 34 % 0 mm 837.0 W/m2 CLR
12:50 1.1 °C -8.9 °C 34371.3 hPa North 23.3 km/h 23.3 km/h 34 % 0 mm 842.0 W/m2 CLR
12:55 1 °C -8.8 °C 34371.3 hPa NNE 23.8 km/h 23.8 km/h 35 % 0 mm 847.0 W/m2 CLR
13:00 1.2 °C -8.9 °C 34371.3 hPa NNW 11.9 km/h 11.9 km/h 34 % 0 mm 856.0 W/m2 CLR
13:05 1.3 °C -9 °C 34371.3 hPa NNE 26.9 km/h 26.9 km/h 33 % 0 mm 858.0 W/m2 CLR
13:10 1.3 °C -8.8 °C 34361.1 hPa NNW 17.9 km/h 17.9 km/h 34 % 0 mm 863.0 W/m2 CLR
13:15 1.3 °C -9 °C 34361.1 hPa ENE 20.9 km/h   33 % 0 mm 867.0 W/m2 CLR
13:20 1.5 °C -8.6 °C 34361.1 hPa North 23.8 km/h 23.8 km/h 34 % 0 mm 875.0 W/m2 CLR
13:25 1.4 °C -8.9 °C 34361.1 hPa NNE 20.9 km/h 20.9 km/h 33 % 0 mm 875.0 W/m2 CLR
13:30 1.5 °C -8.8 °C 34361.1 hPa NW 12.9 km/h 12.9 km/h 33 % 0 mm 877.0 W/m2 CLR
13:35 1.6 °C -8.8 °C 34361.1 hPa West 17.9 km/h 17.9 km/h 33 % 0 mm 881.0 W/m2 CLR
13:40 1.6 °C -8.8 °C 34361.1 hPa Calm     33 % 0 mm 882.0 W/m2 CLR
13:45 1.8 °C -8.6 °C 34361.1 hPa Calm     33 % 0 mm 879.0 W/m2 CLR
13:50 2 °C -8.9 °C 34347.6 hPa ESE 11.9 km/h 11.9 km/h 31 % 0 mm 882.0 W/m2 CLR
13:55 1.8 °C -8.8 °C 34347.6 hPa ESE 10.3 km/h 10.3 km/h 32 % 0 mm 881.0 W/m2 CLR
14:00 1.8 °C -9.1 °C 34347.6 hPa ENE 15 km/h 15 km/h 31 % 0 mm 882.0 W/m2 CLR
14:05 1.7 °C -8.9 °C 34347.6 hPa Calm     32 % 0 mm 882.0 W/m2 CLR
14:10 1.9 °C -8.8 °C 34347.6 hPa Calm     32 % 0 mm 884.0 W/m2 CLR
14:11 1.9 °C -8.7 °C 34347.6 hPa Calm     32 % 0 mm 884.0 W/m2 CLR
14:16 2.1 °C -8.8 °C 34337.4 hPa ENE 17.9 km/h 17.9 km/h 31 % 0 mm 884.0 W/m2 CLR
14:21 2.2 °C -8.8 °C 34337.4 hPa Calm     31 % 0 mm 879.0 W/m2 CLR
14:26 2.3 °C -8.7 °C 34337.4 hPa Calm     31 % 0 mm 881.0 W/m2 CLR
14:31 2.3 °C -8.7 °C 34337.4 hPa Calm     31 % 0 mm 881.0 W/m2 CLR
14:36 2.3 °C -9 °C 34337.4 hPa Calm     30 % 0 mm 881.0 W/m2 CLR
14:41 2.4 °C -8.8 °C 34327.3 hPa NE 17.9 km/h 17.9 km/h 30 % 0 mm 875.0 W/m2 CLR
14:46 2.6 °C -8.8 °C 34327.3 hPa Calm     30 % 0 mm 879.0 W/m2 CLR
14:51 2.7 °C -8.9 °C 34327.3 hPa Calm     29 % 0 mm 875.0 W/m2 CLR
14:56 2.8 °C -9.2 °C 34327.3 hPa ESE 9 km/h 9 km/h 28 % 0 mm 870.0 W/m2 CLR
15:01 2.7 °C -9.3 °C 34327.3 hPa Calm     28 % 0 mm 867.0 W/m2 CLR
15:06 2.8 °C -8.8 °C 34327.3 hPa East 11.9 km/h 11.9 km/h 29 % 0 mm 863.0 W/m2 CLR
15:11 2.7 °C -9.3 °C 34327.3 hPa Calm     28 % 0 mm 858.0 W/m2 CLR
15:16 2.7 °C -9.3 °C 34313.7 hPa ESE 15 km/h 15 km/h 28 % 0 mm 854.0 W/m2 CLR
15:21 2.6 °C -9.6 °C 34313.7 hPa ENE 23.8 km/h 23.8 km/h 27 % 0 mm 849.0 W/m2 CLR
15:26 2.6 °C -9.6 °C 34313.7 hPa ESE 17.9 km/h 17.9 km/h 27 % 0 mm 844.0 W/m2 CLR
15:31 2.9 °C -10.1 °C 34313.7 hPa East 20.9 km/h 20.9 km/h 25 % 0 mm 835.0 W/m2 CLR
15:36 2.9 °C -9.7 °C 34303.6 hPa ESE 23.8 km/h 23.8 km/h 26 % 0 mm 824.0 W/m2 CLR
15:41 2.9 °C -9.7 °C 34303.6 hPa East 23.8 km/h 23.8 km/h 26 % 0 mm 821.0 W/m2 CLR
15:46 2.9 °C -9.7 °C 34303.6 hPa SE 20.9 km/h 20.9 km/h 26 % 0 mm 816.0 W/m2 CLR
15:51 2.9 °C -9.7 °C 34303.6 hPa East 11.9 km/h   26 % 0 mm 802.0 W/m2 CLR
15:56 3 °C -9.6 °C 34303.6 hPa East 23.8 km/h 23.8 km/h 26 % 0 mm 793.0 W/m2 CLR
16:01 3 °C -9.6 °C 34303.6 hPa NNE 11.9 km/h 11.9 km/h 26 % 0 mm 789.0 W/m2 CLR
16:06 3.2 °C -9.5 °C 34293.4 hPa NE 9 km/h 9 km/h 26 % 0 mm 780.0 W/m2 CLR
16:11 3.3 °C -10.1 °C 34293.4 hPa SSE 17.9 km/h 17.9 km/h 24 % 0 mm 761.0 W/m2 CLR
16:16 3.3 °C -10.1 °C 34293.4 hPa ESE 11.9 km/h 11.9 km/h 24 % 0 mm 747.0 W/m2 CLR
16:21 3.4 °C -9.9 °C 34293.4 hPa ENE 26.9 km/h 26.9 km/h 24 % 0 mm 744.0 W/m2 CLR
16:26 3.5 °C -9.9 °C 34293.4 hPa ENE 9 km/h 9 km/h 24 % 0 mm 747.0 W/m2 CLR
16:31 3.4 °C -10.3 °C 34293.4 hPa ESE 11.9 km/h 11.9 km/h 23 % 0 mm 728.0 W/m2 CLR
16:36 3.2 °C -10.5 °C 34293.4 hPa SE 20.8 km/h 20.8 km/h 23 % 0 mm 721.0 W/m2 CLR
16:41 3.2 °C -10.6 °C 34279.9 hPa ENE 18.2 km/h 18.2 km/h 23 % 0 mm 712.0 W/m2 CLR
16:46 3.1 °C -10.6 °C 34279.9 hPa ENE 9 km/h 9 km/h 23 % 0 mm 696.0 W/m2 CLR
16:51 3.2 °C -10.9 °C 34279.9 hPa ENE 9 km/h 9 km/h 22 % 0 mm 670.0 W/m2 CLR
16:56 3.3 °C -10.8 °C 34279.9 hPa NE 17.9 km/h 17.9 km/h 22 % 0 mm 668.0 W/m2 CLR
17:01 3.3 °C -10.4 °C 34279.9 hPa ENE 17.9 km/h 17.9 km/h 23 % 0 mm 652.0 W/m2 CLR
17:06 3.3 °C -10.4 °C 34279.9 hPa ENE 17.9 km/h 17.9 km/h 23 % 0 mm 649.0 W/m2 CLR
17:11 3.4 °C -10.3 °C 34279.9 hPa Calm     23 % 0 mm 633.0 W/m2 CLR
17:16 3.4 °C -10.7 °C 34279.9 hPa ENE 15 km/h 15 km/h 22 % 0 mm 624.0 W/m2 CLR
17:21 3.4 °C -10.7 °C 34269.7 hPa ENE 15 km/h 15 km/h 22 % 0 mm 608.0 W/m2 CLR
17:26 3.3 °C -10.4 °C 34269.7 hPa East 9 km/h 9 km/h 23 % 0 mm 596.0 W/m2 CLR
17:31 3.4 °C -10.3 °C 34269.7 hPa NE 11.9 km/h 11.9 km/h 23 % 0 mm 584.0 W/m2 CLR
17:36 3.5 °C -10.6 °C 34269.7 hPa East 10.3 km/h 10.3 km/h 22 % 0 mm 568.0 W/m2 CLR
17:41 3.4 °C -10.7 °C 34269.7 hPa ENE 23.8 km/h 23.8 km/h 22 % 0 mm 550.0 W/m2 CLR
17:46 3.4 °C -10.4 °C 34269.7 hPa NE 12.9 km/h 12.9 km/h 23 % 0 mm 536.0 W/m2 CLR
17:51 3.4 °C -10.7 °C 34269.7 hPa North 3.1 km/h   22 % 0 mm 522.0 W/m2 CLR
17:57 3.6 °C -10.6 °C 34269.7 hPa East 7.7 km/h 7.7 km/h 22 % 0 mm 508.0 W/m2 CLR
18:02 3.7 °C -10.5 °C 34269.7 hPa West 9 km/h 9 km/h 22 % 0 mm 490.0 W/m2 CLR
18:07 3.8 °C -10.8 °C 34269.7 hPa NE 17.9 km/h 17.9 km/h 21 % 0 mm 478.0 W/m2 CLR
18:12 3.8 °C -10.8 °C 34269.7 hPa North 9 km/h 9 km/h 21 % 0 mm 469.0 W/m2 CLR
18:17 3.8 °C -10.8 °C 34269.7 hPa WNW 12.9 km/h 12.9 km/h 21 % 0 mm 455.0 W/m2 CLR
18:22 3.7 °C -10.8 °C 34269.7 hPa North 12.9 km/h 12.9 km/h 21 % 0 mm 436.0 W/m2 CLR
18:27 3.7 °C -11.3 °C 34256.2 hPa NE 20.8 km/h 20.8 km/h 20 % 0 mm 422.0 W/m2 CLR
18:32 3.7 °C -11.3 °C 34256.2 hPa North 20.9 km/h 20.9 km/h 20 % 0 mm 408.0 W/m2 CLR
18:37 3.7 °C -10.9 °C 34256.2 hPa ENE 15 km/h 15 km/h 21 % 0 mm 392.0 W/m2 CLR
18:42 3.6 °C -11.4 °C 34256.2 hPa ENE 15 km/h 15 km/h 20 % 0 mm 371.0 W/m2 CLR
18:47 3.6 °C -11 °C 34256.2 hPa NNE 15 km/h 15 km/h 21 % 0 mm 353.0 W/m2 CLR
18:52 3.5 °C -11.4 °C 34256.2 hPa ENE 11.9 km/h 11.9 km/h 20 % 0 mm 343.0 W/m2 CLR
18:57 3.6 °C -11.4 °C 34256.2 hPa North 12.9 km/h 12.9 km/h 20 % 0 mm 329.0 W/m2 CLR
19:02 3.5 °C -9.2 °C 34256.2 hPa ENE 29.8 km/h 29.8 km/h 26 % 0 mm 311.0 W/m2 CLR
19:07 3 °C -9.3 °C 34256.2 hPa East 17.9 km/h 17.9 km/h 27 % 0 mm 292.0 W/m2 CLR
19:12 2.7 °C -9.3 °C 34256.2 hPa ESE 18.2 km/h 18.2 km/h 28 % 0 mm 279.0 W/m2 CLR
19:17 2.4 °C -9.1 °C 34256.2 hPa SE 20.9 km/h 20.9 km/h 29 % 0 mm 265.0 W/m2 CLR
19:22 2.3 °C -8.9 °C 34256.2 hPa East 26.9 km/h 26.9 km/h 30 % 0 mm 250.0 W/m2 CLR
19:27 2.3 °C -9 °C 34256.2 hPa ESE 20.9 km/h 20.9 km/h 30 % 0 mm 232.0 W/m2 CLR
19:32 2.3 °C -9.1 °C 34256.2 hPa ESE 23.8 km/h 23.8 km/h 30 % 0 mm 218.0 W/m2 CLR
19:37 2.2 °C -9.1 °C 34256.2 hPa ESE 15 km/h 15 km/h 30 % 0 mm 200.0 W/m2 CLR
19:42 2.2 °C -9.1 °C 34256.2 hPa ESE 17.9 km/h 17.9 km/h 30 % 0 mm 183.0 W/m2 CLR
19:47 2.2 °C -9.1 °C 34256.2 hPa SE 20.9 km/h 20.9 km/h 30 % 0 mm 163.0 W/m2 CLR
19:52 2.1 °C -9.1 °C 34256.2 hPa ESE 20.9 km/h 20.9 km/h 30 % 0 mm 148.0 W/m2 CLR
19:57 2.1 °C -8.9 °C 34256.2 hPa SE 11.9 km/h 11.9 km/h 31 % 0 mm 134.0 W/m2 CLR
20:02 2.1 °C -8.9 °C 34256.2 hPa SE 9 km/h 9 km/h 31 % 0 mm 118.0 W/m2 CLR
20:07 2 °C -9 °C 34256.2 hPa SE 29.8 km/h 29.8 km/h 31 % 0 mm 104.0 W/m2 CLR
20:12 1.9 °C -9 °C 34256.2 hPa SSE 20.9 km/h 20.9 km/h 31 % 0 mm 90.0 W/m2 CLR
20:17 1.9 °C -9.1 °C 34256.2 hPa SSE 10.3 km/h 10.3 km/h 31 % 0 mm 77.0 W/m2 FEW
20:22 1.8 °C -9.1 °C 34256.2 hPa SE 20.9 km/h 20.9 km/h 31 % 0 mm 63.0 W/m2 SCT
20:27 1.8 °C -8.9 °C 34256.2 hPa SE 17.9 km/h 17.9 km/h 32 % 0 mm 51.0 W/m2 SCT
20:32 1.7 °C -8.9 °C 34256.2 hPa SE 17.9 km/h 17.9 km/h 32 % 0 mm 40.0 W/m2 BKN
20:37 1.7 °C -9 °C 34256.2 hPa SE 11.9 km/h 11.9 km/h 32 % 0 mm 35.0 W/m2 BKN
20:42 1.6 °C -9.1 °C 34256.2 hPa SSE 9 km/h 9 km/h 32 % 0 mm 28.0 W/m2 BKN
20:47 1.5 °C -9.1 °C 34269.7 hPa SE 9 km/h 9 km/h 32 % 0 mm 23.0 W/m2 BKN
20:52 1.4 °C -9.2 °C 34269.7 hPa Calm     32 % 0 mm 19.0 W/m2 BKN
20:57 1.3 °C -9 °C 34256.2 hPa SSE 3.1 km/h   33 % 0 mm 14.0 W/m2 BKN
21:02 1.2 °C -9.1 °C 34269.7 hPa Calm     33 % 0 mm 11.0 W/m2 BKN
21:07 1.1 °C -8.9 °C 34269.7 hPa Calm     34 % 0 mm 7.0 W/m2 BKN
21:12 1 °C -9 °C 34269.7 hPa Calm     34 % 0 mm 5.0 W/m2 OVC
21:17 0.9 °C -8.7 °C 34269.7 hPa Calm     36 % 0 mm 0.0 W/m2 OVC
21:22 0.7 °C -8.3 °C 34269.7 hPa Calm     38 % 0 mm 0.0 W/m2 OVC
21:27 0.6 °C -8.4 °C 34269.7 hPa ESE 11.9 km/h 11.9 km/h 38 % 0 mm 0.0 W/m2 CLR
21:32 0.5 °C -8.5 °C 34269.7 hPa Calm     38 % 0 mm 0.0 W/m2 CLR
21:37 0.4 °C -8.4 °C 34269.7 hPa Calm     39 % 0 mm 0.0 W/m2 CLR
21:42 0.3 °C -8.7 °C 34279.9 hPa Calm     38 % 0 mm 0.0 W/m2 CLR
21:47 0.2 °C -8.5 °C 34279.9 hPa Calm     39 % 0 mm 0.0 W/m2 CLR
21:52 0.1 °C -8.6 °C 34279.9 hPa Calm     39 % 0 mm 0.0 W/m2 CLR
21:57 0 °C -8.5 °C 34279.9 hPa Calm     40 % 0 mm 0.0 W/m2 CLR
22:02 -0.2 °C -8.4 °C 34279.9 hPa Calm     41 % 0 mm 0.0 W/m2 CLR
22:07 -0.3 °C -8.3 °C 34279.9 hPa Calm     42 % 0 mm 0.0 W/m2 CLR
22:12 -0.4 °C -8.4 °C 34293.4 hPa Calm     42 % 0 mm 0.0 W/m2 CLR
22:17 -0.6 °C -8.6 °C 34293.4 hPa Calm     42 % 0 mm 0.0 W/m2 CLR
22:22 -0.7 °C -8.4 °C 34293.4 hPa Calm     43 % 0 mm 0.0 W/m2 CLR
22:27 -0.7 °C -8.4 °C 34293.4 hPa Calm     43 % 0 mm 0.0 W/m2 CLR
22:32 -0.7 °C -8.4 °C 34293.4 hPa Calm     43 % 0 mm 0.0 W/m2 CLR
22:37 -0.7 °C -8.5 °C 34293.4 hPa Calm     43 % 0 mm 0.0 W/m2 CLR
22:42 -0.8 °C -8.6 °C 34293.4 hPa Calm     43 % 0 mm 0.0 W/m2 CLR
22:47 -0.9 °C -8.7 °C 34293.4 hPa Calm     43 % 0 mm 0.0 W/m2 CLR
22:52 -1 °C -8.8 °C 34293.4 hPa Calm     43 % 0 mm 0.0 W/m2 CLR
22:57 -1 °C -8.8 °C 34293.4 hPa Calm     43 % 0 mm 0.0 W/m2 CLR
23:02 -1 °C -9 °C 34293.4 hPa Calm     42 % 0 mm 0.0 W/m2 CLR
23:07 -1 °C -9 °C 34293.4 hPa Calm     42 % 0 mm 0.0 W/m2 CLR
23:12 -1.1 °C -8.8 °C 34293.4 hPa Calm     43 % 0 mm 0.0 W/m2 CLR
23:17 -1.2 °C -8.9 °C 34293.4 hPa Calm     43 % 0 mm 0.0 W/m2 CLR
23:22 -1.3 °C -9 °C 34293.4 hPa Calm     43 % 0 mm 0.0 W/m2 CLR
23:28 -1.4 °C -9.1 °C 34293.4 hPa Calm     43 % 0 mm 0.0 W/m2 CLR
23:33 -1.4 °C -9.2 °C 34303.6 hPa Calm     43 % 0 mm 0.0 W/m2 CLR
23:38 -1.6 °C -9.1 °C 34303.6 hPa Calm     44 % 0 mm 0.0 W/m2 CLR
23:43 -1.6 °C -9.1 °C 34303.6 hPa Calm     44 % 0 mm 0.0 W/m2 CLR
23:48 -1.7 °C -9 °C 34303.6 hPa Calm     45 % 0 mm 0.0 W/m2 CLR
23:53 -1.8 °C -9.1 °C 34303.6 hPa Calm     45 % 0 mm 0.0 W/m2 CLR
23:58 -1.9 °C -9.2 °C 34303.6 hPa Calm     45 % 0 mm 0.0 W/m2 CLR
Lo Temps de Massalio
Compliments of Weather Underground - 1.25 mb